EUTELSAT 16A

Last updated on Oct. 31, 2020, 5:53 a.m. UTC

1 37836U 11057A   20304.92827490  .00000110  00000-0  00000-0 0  9993
2 37836   0.0714  22.9723 0004646 196.4140 170.5077  1.00272643 25370
UTC
Height (km)
Latitude
Longitude
Inclination
Orbital Period
UTC large
Height (km)
Speed (km/s)
/
Latitude / Longitude
Inclination (degrees)
Orbital Period (minutes)
Azimuth
Elevation
Range (km)
Doppler Factor
iOS Compass Heading
iOS Angle

Next 30 passes for location: Hong Kong

Rise time Rise Azimuth (degrees) Set time Set Azimuth (degrees) Duration Max altitude (degrees)

No matching passes for this satellites